Eindhoven, Netherlands

10:57 AM CEST on March 26, 2017 (GMT +0200)
Eindhoven Air Base

Weather History for EHEH - May, 2013

Change the Weather History Date:

Tuesday, May 7, 2013

  Actual Average Record
Temperature  
Mean Temperature 60 °F -  
Max Temperature 75 °F 65 °F 82 °F (2011)
Min Temperature 46 °F 47 °F 32 °F (1997)
Degree Days  
Heating Degree Days 4    
Growing Degree Days 10 (Base 50)    
Moisture  
Dew Point 51 °F    
Average Humidity 77    
Maximum Humidity 100    
Minimum Humidity 36    
Precipitation  
Precipitation 0.00 in - - ()
Sea Level Pressure  
Sea Level Pressure 29.97 in    
Wind  
Wind Speed 5 mph ()    
Max Wind Speed 18 mph    
Max Gust Speed 30 mph    
Visibility 5.5 miles    
Events Rain    
Averages and records for this station are not official NWS values.
T = Trace of Precipitation, MM = Missing Value Source: Averaged Metar Reports

Daily Weather History Graph

Daily Weather History Graph

Search for Another Location

Airport or City:

Trip Planner

Search our weather history database for the weather conditions in past years. The results will help you decide how hot, cold, wet, or windy it might be!

Date:

Astronomy

May. 07, 2013 Rise Set
Actual Time 5:59 AM CEST 9:11 PM CEST
Civil Twilight 5:20 AM CEST 9:50 PM CEST
Nautical Twilight 4:27 AM CEST 10:43 PM CEST
Astronomical Twilight 3:19 AM CEST 11:53 PM CEST
Moon 4:43 AM CEST (5/7) 6:41 PM CEST (5/7)
Length of Visible Light 16h 30m
Length of Day
15h 11m
Waning Crescent, 7% of the Moon is Illuminated
May 7
Waning Crescent
May 10
New
May 18
First Quarter
May 25
Full
May 31
Last Quarter

Hourly Weather History & Observations

Time (CEST) Temp. Dew Point Humidity Pressure Visibility Wind Dir Wind Speed Gust Speed Precip Events Conditions
12:25 AM 55.4 °F 48.2 °F 77% 30.04 in 6.2 mi NNW 4.6 mph - N/A   Unknown
12:55 AM 55.4 °F 48.2 °F 77% 30.04 in 6.2 mi NW 3.5 mph - N/A   Unknown
1:25 AM 53.6 °F 48.2 °F 82% 30.04 in 6.2 mi North 4.6 mph - N/A   Scattered Clouds
1:55 AM 53.6 °F 48.2 °F 82% 30.01 in 6.2 mi North 4.6 mph - N/A   Partly Cloudy
2:00 AM 54 °F 48 °F 74% 30.03 in 6 mi NNW 4.5 mph - -   Partly Cloudy
2:25 AM 53.6 °F 48.2 °F 82% 30.01 in 5.6 mi North 4.6 mph - N/A   Haze
2:55 AM 51.8 °F 48.2 °F 88% 30.01 in 5.6 mi NW 4.6 mph - N/A   Mist
3:03 AM 51.8 °F 48.2 °F 88% 30.01 in 4.3 mi NNW 4.6 mph - N/A   Mist
3:09 AM 51.8 °F 48.2 °F 88% 30.01 in 5.0 mi NNW 4.6 mph - N/A   Mist
3:25 AM 51.8 °F 48.2 °F 88% 30.01 in 4.3 mi North 3.5 mph - N/A   Mist
3:55 AM 48.2 °F 46.4 °F 93% 30.01 in 4.3 mi North 1.2 mph - N/A   Mist
4:19 AM 48.2 °F 48.2 °F 100% 30.01 in - North 2.3 mph - N/A   Mist
4:25 AM 48.2 °F 48.2 °F 100% 30.01 in 3.1 mi NNE 2.3 mph - N/A   Mist
4:39 AM 48.2 °F 48.2 °F 100% 30.01 in 3.7 mi NNE 4.6 mph - N/A   Mostly Cloudy
4:55 AM 50.0 °F 48.2 °F 94% 29.98 in 3.1 mi NNE 4.6 mph - N/A   Mostly Cloudy
5:00 AM 51 °F 48 °F 87% 30.01 in 3 mi North 4.5 mph - -   Mist
5:05 AM 50.0 °F 48.2 °F 94% 29.98 in - North 4.6 mph - N/A   Mostly Cloudy
5:06 AM 51.8 °F 48.2 °F 88% 29.98 in 3.1 mi North 3.5 mph - N/A   Mostly Cloudy
5:17 AM 51.8 °F 48.2 °F 88% 30.01 in - NNW 3.5 mph - N/A   Mist
5:18 AM 50.0 °F 48.2 °F 94% 30.01 in 3.1 mi NNW 3.5 mph - N/A   Mist
5:25 AM 48.2 °F 46.4 °F 93% 30.01 in - NNW 2.3 mph - N/A   Mist
5:33 AM 48.2 °F 46.4 °F 93% 30.01 in - NW 2.3 mph - N/A   Partly Cloudy
5:39 AM 48.2 °F 46.4 °F 93% 30.01 in - NNW 2.3 mph - N/A   Partly Cloudy
5:55 AM 46.4 °F 44.6 °F 93% 30.01 in - NNW 2.3 mph - N/A   Mist
6:08 AM 46.4 °F 46.4 °F 100% 30.01 in - NNW 2.3 mph - N/A   Partly Cloudy
6:14 AM 46.4 °F 46.4 °F 100% 30.01 in 2.2 mi North 2.3 mph - N/A   Mist
6:25 AM 48.2 °F 46.4 °F 93% 30.01 in - North 2.3 mph - N/A   Mostly Cloudy
6:30 AM 48.2 °F 46.4 °F 93% 30.01 in - NNE 2.3 mph - N/A   Overcast
6:31 AM 48.2 °F 48.2 °F 100% 30.01 in - NNE 3.5 mph - N/A   Overcast
6:37 AM 48.2 °F 48.2 °F 100% 30.01 in - NNE 3.5 mph - N/A   Mostly Cloudy
6:41 AM 48.2 °F 46.4 °F 93% 30.01 in - NNE 3.5 mph - N/A   Mostly Cloudy
6:46 AM 48.2 °F 46.4 °F 93% 30.01 in 3.1 mi North 3.5 mph - N/A   Mostly Cloudy
6:50 AM 48.2 °F 48.2 °F 100% 30.01 in - NNW 2.3 mph - N/A   Overcast
6:55 AM 48.2 °F 48.2 °F 100% 30.01 in 3.1 mi NNW 2.3 mph - N/A   Overcast
6:56 AM 50.0 °F 48.2 °F 94% 30.01 in - NNW 2.3 mph - N/A   Overcast
7:03 AM 50.0 °F 48.2 °F 94% 30.01 in 3.1 mi NNW 2.3 mph - N/A   Overcast
7:07 AM 50.0 °F 50.0 °F 100% 30.01 in - NNW 2.3 mph - N/A   Overcast
7:10 AM 51.8 °F 51.8 °F 100% 30.01 in 3.1 mi North 2.3 mph - N/A   Overcast
7:15 AM 51.8 °F 51.8 °F 100% 30.01 in 2.8 mi North 3.5 mph - N/A   Overcast
7:19 AM 53.6 °F 51.8 °F 94% 30.01 in 3.1 mi NNE 3.5 mph - N/A   Overcast
7:25 AM 55.4 °F 51.8 °F 88% 30.01 in 3.1 mi NNE 4.6 mph - N/A   Overcast
7:34 AM 55.4 °F 51.8 °F 88% 30.01 in 3.7 mi NE 4.6 mph - N/A   Overcast
7:35 AM 57.2 °F 51.8 °F 82% 30.01 in 5.0 mi NE 4.6 mph - N/A   Overcast
7:48 AM 57.2 °F 50.0 °F 77% 30.01 in 5.6 mi ENE 4.6 mph - N/A   Haze
7:55 AM 57.2 °F 50.0 °F 77% 30.01 in 6.2 mi ENE 4.6 mph - N/A   Mostly Cloudy
8:00 AM 58 °F 49 °F 65% 30.02 in 7 mi ENE 4.5 mph - -   Partly Cloudy
8:25 AM 59.0 °F 50.0 °F 72% 30.01 in 6.2 mi ENE 4.6 mph - N/A   Mostly Cloudy
8:55 AM 62.6 °F 50.0 °F 63% 30.01 in 6.2 mi East 4.6 mph - N/A   Mostly Cloudy
9:25 AM 66.2 °F 50.0 °F 56% 30.01 in 6.2 mi NE 5.8 mph - N/A   Scattered Clouds
9:39 AM 68.0 °F 51.8 °F 56% 29.98 in 6.2 mi NE 4.6 mph - N/A   Mostly Cloudy
9:55 AM 68.0 °F 51.8 °F 56% 29.98 in 6.2 mi ENE 8.1 mph - N/A   Mostly Cloudy
10:25 AM 69.8 °F 51.8 °F 53% 29.98 in 6.2 mi ENE 8.1 mph - N/A   Overcast
10:55 AM 69.8 °F 50.0 °F 49% 29.98 in 6.2 mi ENE 9.2 mph - N/A   Overcast
11:00 AM 71 °F 50 °F 36% 30.00 in 11 mi ENE 8.9 mph - -   Overcast
11:25 AM 71.6 °F 50.0 °F 46% 29.98 in 6.2 mi ENE 11.5 mph - N/A   Overcast
11:47 AM 71.6 °F 48.2 °F 43% 29.98 in 6.2 mi NE 13.8 mph - N/A   Partly Cloudy
11:55 AM 71.6 °F 48.2 °F 43% 29.98 in 6.2 mi NE 13.8 mph - N/A   Partly Cloudy
12:25 PM 71.6 °F 46.4 °F 41% 29.98 in 6.2 mi ENE 13.8 mph - N/A   Partly Cloudy
12:55 PM 73.4 °F 46.4 °F 38% 29.95 in 6.2 mi NE 16.1 mph 29.9 mph N/A   Mostly Cloudy
1:25 PM 73.4 °F 50.0 °F 44% 29.95 in 6.2 mi NE 13.8 mph - N/A   Mostly Cloudy
1:55 PM 73.4 °F 51.8 °F 47% 29.95 in 6.2 mi ENE 13.8 mph - N/A   Overcast
1:57 PM 73.4 °F 51.8 °F 47% 29.95 in 6.2 mi ENE 13.8 mph - N/A   Overcast
2:00 PM 74 °F 53 °F 37% 29.96 in 13 mi NE 13.4 mph - -   Partly Cloudy
2:00 PM 75.2 °F 53.6 °F 47% 29.95 in 6.2 mi NE 13.8 mph - N/A   Overcast
2:09 PM 71.6 °F 50.0 °F 46% 29.95 in 6.2 mi ENE 11.5 mph - N/A   Mostly Cloudy
2:25 PM 71.6 °F 51.8 °F 50% 29.95 in 6.2 mi ENE 12.7 mph - N/A   Overcast
2:55 PM 69.8 °F 51.8 °F 53% 29.95 in 6.2 mi ENE 15.0 mph - N/A   Overcast
3:25 PM 71.6 °F 53.6 °F 53% 29.95 in 6.2 mi ENE 15.0 mph 26.5 mph N/A   Overcast
3:55 PM 69.8 °F 53.6 °F 56% 29.95 in 6.2 mi ENE 16.1 mph - N/A   Mostly Cloudy
4:25 PM 69.8 °F 53.6 °F 56% 29.92 in 6.2 mi ENE 16.1 mph - N/A   Overcast
4:55 PM 68.0 °F 53.6 °F 60% 29.95 in 6.2 mi East 12.7 mph - N/A   Mostly Cloudy
5:00 PM 66 °F 54 °F 56% 29.96 in 9 mi East 17.9 mph - -   Partly Cloudy
5:25 PM 66.2 °F 55.4 °F 68% 29.95 in 6.2 mi East 12.7 mph - N/A   Overcast
5:55 PM 64.4 °F 53.6 °F 68% 29.92 in 6.2 mi ENE 13.8 mph - N/A   Overcast
6:25 PM 64.4 °F 55.4 °F 73% 29.92 in 6.2 mi ENE 9.2 mph - N/A   Mostly Cloudy
6:55 PM 64.4 °F 53.6 °F 68% 29.92 in 6.2 mi ENE 10.4 mph - N/A   Mostly Cloudy
6:56 PM 64.4 °F 53.6 °F 68% 29.92 in 6.2 mi ENE 10.4 mph - N/A   Mostly Cloudy
7:09 PM 64.4 °F 55.4 °F 73% 29.92 in 6.2 mi ENE 10.4 mph - N/A   Mostly Cloudy
7:25 PM 62.6 °F 55.4 °F 77% 29.92 in 6.2 mi NE 10.4 mph - N/A   Overcast
7:29 PM 62.6 °F 55.4 °F 77% 29.92 in 6.2 mi NE 10.4 mph - N/A   Overcast
7:30 PM 62.6 °F 55.4 °F 77% 29.92 in 6.2 mi ENE 9.2 mph - N/A   Overcast
7:46 PM 62.6 °F 55.4 °F 77% 29.92 in 6.2 mi East 6.9 mph - N/A   Mostly Cloudy
7:55 PM 62.6 °F 55.4 °F 77% 29.92 in 6.2 mi ENE 8.1 mph - N/A   Mostly Cloudy
7:59 PM 62.6 °F 55.4 °F 77% 29.92 in 6.2 mi ENE 10.4 mph - N/A   Mostly Cloudy
8:00 PM 63 °F 55 °F 68% 29.93 in 7 mi ENE 8.9 mph - - Rain Drizzle
8:06 PM 62.6 °F 55.4 °F 77% 29.92 in 6.2 mi ENE 10.4 mph - N/A   Overcast
8:25 PM 62.6 °F 55.4 °F 77% 29.92 in 6.2 mi ENE 8.1 mph - N/A   Overcast
8:55 PM 62.6 °F 55.4 °F 77% 29.92 in 6.2 mi NE 5.8 mph - N/A   Overcast
9:06 PM 62.6 °F 55.4 °F 77% 29.92 in 6.2 mi ENE 6.9 mph - N/A   Overcast
9:25 PM 62.6 °F 55.4 °F 77% 29.92 in 6.2 mi ENE 4.6 mph - N/A   Overcast
9:45 PM 60.8 °F 55.4 °F 82% 29.92 in 5.6 mi East 4.6 mph - N/A   Haze
9:46 PM 60.8 °F 55.4 °F 82% 29.92 in 5.6 mi East 4.6 mph - N/A   Haze
9:55 PM 60.8 °F 55.4 °F 82% 29.92 in 5.0 mi East 5.8 mph - N/A   Haze
10:00 PM 60.8 °F 55.4 °F 82% 29.92 in 5.0 mi ENE 5.8 mph - N/A   Haze
10:07 PM 60.8 °F 55.4 °F 82% 29.92 in 4.3 mi ENE 6.9 mph - N/A   Haze
10:25 PM 60.8 °F 55.4 °F 82% 29.92 in 5.0 mi ENE 8.1 mph - N/A   Overcast
10:47 PM 60.8 °F 57.2 °F 88% 29.89 in 4.3 mi East 4.6 mph - N/A   Overcast
10:55 PM 60.8 °F 57.2 °F 88% 29.89 in 3.7 mi East 5.8 mph - N/A   Overcast
11:00 PM 60 °F 57 °F 85% 29.92 in 4 mi ENE 4.5 mph - -   Mist
11:25 PM 60.8 °F 57.2 °F 88% 29.89 in 3.1 mi ENE 4.6 mph - N/A   Drizzle
11:55 PM 60.8 °F 57.2 °F 88% 29.89 in 3.1 mi East 3.5 mph - N/A   Overcast